Theta_e
301 301 301 301 300 299 298 297 298 298 299 298 297 296 295 294 293 292 292 290 291 291
301 300 300 300 299 298 298 298 298 298 297 297 296 295 294 293 292 292 292 291 290 289
300 300 301 300 299 299 297 297 297 296 296 296 295 294 294 293 292 292 291 290 289 288
299 300 300 299 299 298 297 297 297 297 296 296 295 295 294 293 293 292 290 289 288 287
299 300 299 299 299 298 297 297 297 296 296 296 295 294 294 294 292 291 289 289 288 286
298 299 298 298 298 297 296 295 296 296 295 295 294 294 293 293 292 290 289 288 286 285
297 298 298 298 297 296 296 294 294 294 294 294 293 293 294 293 291 290 289 288 287 285
297 297 297 297 296 295 295 294 293 292 291 291 292 293 292 292 291 289 288 288 287 286
296 296 296 296 294 294 293 292 291 290 290 288 290 291 292 291 290 289 288 285 284 284
297 296 296 296 295 292 291 290 288 287 287 287 287 290 291 290 289 288 287 285 284 284
297 296 295 295 293 292 290 288 286 285 285 286 287 289 290 289 288 287 286 285 282 282
297 296 295 294 292 292 289 287 285 285 284 285 285 289 289 289 287 286 284 284 283 283
298 296 295 294 293 292 290 288 286 284 285 286 285 288 289 289 287 283 283 283 284 286
297 296 295 294 293 292 290 288 286 284 284 285 286 286 289 289 286 285 283 282 282 283
Wind_Speed
12 8 7 6 7 5 4 4 5 7 7 7 7 7 7 7 7 8 8 9 7 6
11 11 9 9 6 4 6 5 6 7 7 7 7 7 8 7 9 9 8 7 6 6
11 10 10 10 9 8 6 6 8 8 7 7 7 7 9 8 6 9 6 5 7 6
11 12 12 10 10 10 8 9 9 9 8 8 8 7 8 7 7 8 7 6 7 6
14 13 13 12 10 10 10 8 10 9 8 8 8 7 8 8 7 7 7 6 6 6
12 13 13 13 13 10 11 9 9 9 9 8 7 7 6 8 7 6 6 6 6 5
12 13 13 12 13 12 11 10 9 8 8 8 7 7 7 7 7 7 7 6 5 5
12 11 12 13 12 12 12 10 9 9 7 7 7 6 7 7 8 9 8 6 5 5
13 13 13 13 13 12 11 11 10 9 9 7 5 10 11 9 8 9 8 7 5 4
15 15 13 14 14 13 13 11 10 9 9 7 6 11 11 13 7 8 7 6 5 5
14 16 15 14 14 13 11 11 10 9 8 8 6 11 11 13 8 7 6 6 6 6
16 16 17 17 15 13 12 8 8 8 9 9 7 12 12 11 8 8 7 5 6 5
16 16 17 16 16 13 12 11 8 8 8 10 9 12 13 12 8 8 6 5 5 7
17 16 16 15 12 13 13 11 10 9 6 7 8 8 14 16 9 8 6 5 4 3
Wind_Direction
148 150 151 150 146 138 133 134 132 112 109 107 101 97 92 91 90 85 79 76 75 81
148 148 154 142 128 133 126 128 117 111 112 106 105 104 103 99 99 90 88 84 81 82
148 144 143 144 139 144 136 124 130 119 117 118 114 112 109 106 95 103 95 92 90 84
151 146 145 145 147 148 134 139 137 131 130 130 126 120 111 113 107 100 102 97 96 84
150 149 147 145 150 149 144 137 139 136 131 134 131 124 128 127 116 120 114 103 102 101
150 152 152 151 147 147 141 133 134 131 135 139 135 128 120 125 125 113 108 108 103 112
156 158 153 150 147 145 143 136 134 133 132 137 134 133 132 127 120 112 104 100 97 97
149 149 147 146 147 142 142 139 136 128 125 129 135 140 135 129 122 119 113 108 103 91
147 147 153 152 147 144 139 139 138 139 141 134 133 132 135 130 130 134 135 126 105 90
159 154 156 154 150 148 150 146 149 143 141 141 136 138 136 135 135 141 144 141 138 115
170 156 154 155 154 150 151 155 155 149 150 144 154 151 146 135 128 121 129 133 134 128
171 163 156 158 160 155 150 148 157 155 151 156 158 165 154 131 129 126 125 129 132 137
167 167 162 162 162 156 154 154 153 154 165 166 164 176 166 143 137 135 136 131 139 150
168 164 162 157 165 156 155 150 151 157 156 158 169 173 167 153 149 151 151 149 161 157